ONEWEB-0098, 45442

Orbit data source: Space-Track

ONEWEB-0098, 45442 is a payload satellite owned by One Web (UK) in LEO that was launched on Sat, 21 Mar 2020 UTC via a SOYUZ-2-1B launch vehicle from the Tyuratam Missile And Space Complex (TTMTR). Payloads include a variety of satellites, spacecraft, and rockets equipped with specific instruments for various scientific and technological missions. These include communications satellites like Starlink; space stations such as the ISS; scientific satellites like the Hubble; Earth observation satellites from companies like Planet Labs, Umbra, and HawkEye 360; GPS; miniature CubeSats for education and research; and military/defense satellites.

Loading next visibility...
ONEWEB-0098 details
Identifier
45442, 2020-020U
Orbit
LEO
Last TLE update6 hours ago
Origin
Flag of UKOne Web (UK)
ManufacturerOne Web
MissionOperational Commercial Communications
Bus & MotorARROW, Unknown motor
Mass148 kg wet, ~140 kg dry
Launch date (UTC)
2020-03-21 (5 years ago)
Launch vehicle
SOYUZ-2-1B
Launch site
Tyuratam Missile And Space Complex (TTMTR)
Object type
Payload
Rocket body
Debris
Shape & HBRTrap Box + 2 Pan, 5 m
Radar Cross Section2.957 m², Large (>1 m²)

Expand to show TLE details & history

TLE from 6 hours ago
0 ONEWEB-0098
1 45442U 20020U   24361.30023006 -.00000282  00000-0 -83034-3 0  9998
2 45442  87.8903 128.2507 0001481 113.4101 246.7183 13.11417085232140
Epoch: 2024-12-26T07:12Z
Definitive object data (Epoch: 2024-12-26T07:12:19.877Z)
Latitude0.00002°
Longitude-75.11372°
Altitude1,221.016 km
Speed7.244 km/s
True Right ascension08h 33m 00s
True Declination0° 00' 00"
Sunlit
Object was in full shadow at TLE epoch
Visualization TLE readout
Latitude80.90842°
Longitude-61.92196°
Altitude1,230.253 km
Speed7.247 km/s
Apparent Right ascension01h 16m 15s
Apparent Declination39° 31' 14"
Sunlit
Object is in daylight
Visualization observer readout
Local Sidereal Time12:28:16
Azimuth350.636° N
Elevation-9.811°
Doppler factor1
Orbital elements
Apogee altitude1,215.925 km
Perigee altitude1,213.676 km
Semi-major axis7,592.937 km
Eccentricity0.0001481
Inclination87.8903°
RAAN128.2507°
Arg. of periapsis113.4101°
True anomaly246.70271°
Mean anomaly246.7183°
Eccentric anomaly246.71051°
Mean motion3.28041 °/min
BSTAR-0.00083034
Orbital period109.74 mins
Loading maneuver chart data...
Loading historical data...
Loading historical data...
Loading historical data...
Loading historical data...
Loading historical data...
Loading historical data...
Loading historical data...

ONEWEB-0098 Visibility forecast

Observer location: undefined°, undefined

Span
Click to sort rows by Start time (UTC) header in descending order
Start Az.
Max El. time (UTC)
Max El. Az.
Max El.
End time (UTC)
End Az.
13 mins2024-12-26 20:37:39.192Z5.621° NNE2024-12-26 20:43:39.192Z65.867° ENE42.657°2024-12-26 20:50:39.192Z169.579° S
8 mins2024-12-26 22:29:39.192Z320.077° NNW2024-12-26 22:33:39.192Z280.844° WNW19.643°2024-12-26 22:37:39.192Z244.906° WSW
13 mins2024-12-27 08:56:39.192Z170.459° S2024-12-27 09:02:39.192Z87.304° E44.168°2024-12-27 09:09:39.192Z4.087° NNE
8 mins2024-12-27 10:49:39.192Z252.483° W2024-12-27 10:53:39.192Z289.724° WNW17.63°2024-12-27 10:57:39.192Z324.793° NNW
|